Theta_e
341 339 336 334 340 346 352 351 348 349 348 343 343 345 344 342 346 349 339 341 341 341 342 341 342 341 341 339 339 339 339 338 338 339 339 339 339 338 339 340 340 343 343 339 341 345 343 343 341
340 336 334 334 343 348 349 347 350 349 345 345 345 343 345 345 339 336 336 341 340 342 341 340 340 339 339 337 337 337 338 338 338 337 337 337 337 337 337 337 338 340 343 343 341 342 343 343 342
337 335 334 338 343 349 351 349 348 346 344 345 346 344 345 346 335 336 340 341 340 340 338 339 339 339 339 338 338 336 335 334 334 334 337 337 336 336 336 336 335 336 337 338 340 342 341 342 340
333 331 332 342 348 346 348 347 345 345 343 341 342 346 343 342 341 338 341 340 339 339 340 339 339 338 337 336 334 333 332 330 331 332 335 333 332 333 335 335 336 335 334 334 334 338 340 340 338
334 329 337 342 347 345 345 342 344 346 344 342 341 344 344 341 338 340 340 338 336 333 333 335 336 334 332 331 330 329 328 327 327 326 328 329 333 335 335 335 335 335 335 335 334 329 328 332 335
330 329 338 345 346 345 342 344 344 344 342 341 342 344 343 340 340 339 336 332 330 328 327 327 329 329 329 329 328 329 328 328 326 327 329 328 324 327 326 329 334 334 334 335 335 335 335 331 328
331 333 343 343 344 344 345 342 344 343 341 343 339 345 342 339 339 335 332 329 324 323 321 320 321 321 321 322 321 322 321 322 327 324 320 318 318 317 317 320 328 331 333 333 333 334 334 335 333
329 336 343 342 345 347 346 344 343 344 345 340 339 343 345 338 335 334 332 327 320 320 320 320 320 320 320 319 318 318 319 318 319 319 318 317 317 317 317 317 318 326 326 327 327 330 332 333 333
330 334 339 340 343 347 344 345 340 339 341 339 338 339 339 337 335 334 324 321 321 321 322 321 321 320 320 319 318 317 317 318 317 317 317 317 316 316 315 316 316 316 318 321 323 325 326 327 331
333 334 337 335 338 346 344 343 343 343 341 341 339 337 336 335 333 326 321 322 321 320 320 320 320 321 321 320 319 318 317 316 316 316 316 316 316 315 314 314 314 313 314 315 318 321 323 325 325
339 339 337 338 342 342 341 341 339 342 341 340 339 334 331 328 324 323 323 322 322 322 322 321 322 321 320 317 315 316 316 315 314 315 314 313 313 312 312 312 311 311 311 311 312 316 320 321 324
342 343 340 343 341 340 340 337 338 337 336 335 334 332 329 325 325 324 322 322 322 323 322 321 321 315 311 313 314 314 314 315 314 313 312 312 311 310 310 309 309 308 308 309 310 311 313 319 320
341 344 340 339 338 338 337 339 337 334 327 327 328 330 325 324 324 324 322 323 323 323 322 322 316 312 311 314 313 313 314 314 313 312 311 310 309 309 310 310 310 310 309 309 310 311 312 315 318
339 340 340 338 338 337 338 337 337 334 327 327 326 326 325 325 324 324 323 323 323 323 322 319 314 312 313 314 313 312 313 313 311 311 310 309 310 311 311 311 311 311 311 310 310 310 312 314 316
337 338 338 340 340 338 337 340 340 332 327 326 326 327 326 325 324 324 323 324 324 323 322 316 313 312 311 311 311 311 312 312 312 311 310 309 311 312 311 312 311 312 311 311 311 310 311 313 314
335 334 340 331 341 339 339 343 337 332 330 328 326 327 327 326 325 324 324 324 324 323 319 316 313 313 311 311 311 311 311 312 312 311 309 309 310 311 311 311 311 311 311 312 311 311 311 311 311
332 336 335 338 335 341 341 341 338 334 333 330 326 327 326 325 324 324 326 324 324 322 318 316 314 313 312 311 311 311 311 311 311 311 310 311 311 311 311 311 311 312 312 312 311 311 311 311 310
333 334 336 337 338 338 339 342 339 335 334 328 326 326 326 325 325 324 326 325 324 321 318 317 314 314 312 311 311 312 312 312 311 310 310 311 311 311 311 311 311 311 312 312 313 312 311 312 312
332 334 337 334 334 337 337 341 339 338 337 331 329 327 326 326 325 327 325 324 322 320 319 318 315 313 312 311 313 313 313 313 312 312 312 312 312 312 311 311 310 311 311 312 312 312 312 312 312
334 336 339 337 334 336 338 339 335 332 332 334 331 328 327 328 327 326 326 323 321 320 319 318 315 313 312 313 313 314 314 313 312 312 312 312 312 312 311 311 311 311 312 312 313 313 312 312 312
331 334 337 339 334 333 334 339 336 333 329 329 328 327 326 329 327 326 324 325 324 321 320 318 316 314 313 313 313 313 313 313 312 312 312 312 312 312 311 311 311 311 312 312 313 313 312 311 312
332 331 336 336 334 338 330 333 337 335 332 329 330 327 325 327 326 324 325 326 323 322 320 319 316 314 313 312 313 314 313 313 313 312 312 312 311 312 311 312 310 311 312 313 313 312 313 312 311
330 334 333 333 332 329 329 330 329 332 331 330 327 326 322 322 322 323 324 325 323 322 321 318 316 314 312 312 312 313 313 313 313 313 312 312 312 312 311 311 310 312 312 313 313 313 313 313 312
331 327 321 325 324 330 331 329 328 331 331 331 329 326 323 322 322 324 325 325 325 322 319 317 315 314 312 312 312 312 313 313 313 313 312 312 312 312 312 310 311 312 313 313 313 313 314 314 314
324 320 327 326 330 333 329 324 325 326 328 328 327 326 325 323 323 323 323 322 321 319 317 316 315 314 312 312 312 312 313 313 314 314 312 312 313 312 312 311 311 312 312 312 313 313 314 314 314
326 319 321 327 331 332 327 332 326 323 326 325 325 324 324 323 321 321 322 322 321 317 316 315 315 314 312 312 312 313 314 314 314 314 314 313 313 313 311 311 311 311 312 313 312 313 314 314 313
327 328 322 327 325 328 330 329 323 322 326 327 325 324 322 321 320 319 321 320 316 317 316 315 314 313 312 312 313 313 314 314 313 313 313 313 312 311 311 311 311 311 313 313 313 312 313 314 314
325 323 325 321 331 333 330 329 326 322 321 325 326 324 322 319 319 318 317 317 316 318 315 315 313 313 313 313 313 313 314 313 313 312 312 311 310 310 310 310 310 311 312 313 313 312 313 313 313
323 324 324 321 324 327 329 328 321 322 317 321 321 320 319 319 318 318 319 318 315 314 314 314 313 313 313 312 313 313 314 312 312 312 312 312 311 311 310 311 310 310 311 311 313 313 313 313 313
320 324 321 324 330 323 322 323 316 314 312 312 314 316 314 314 316 317 317 316 316 314 313 312 312 313 313 312 312 313 314 313 312 312 313 313 312 313 312 310 309 311 311 310 314 311 312 313 313
Wind_Speed
12 3 1 3 4 5 3 3 3 5 3 2 4 4 7 5 4 4 4 10 8 9 10 11 14 13 14 14 13 13 13 12 12 11 11 11 11 12 11 11 9 9 8 6 4 5 6 6 7
9 4 5 3 5 4 3 4 9 10 8 7 8 5 6 5 5 3 3 11 11 13 12 12 13 13 13 13 13 13 12 12 12 11 11 11 11 11 11 12 12 10 7 7 5 2 5 6 6
3 5 4 4 3 3 3 12 12 6 5 4 3 6 3 3 3 3 9 13 13 16 14 14 14 15 14 14 13 13 11 11 10 11 11 10 9 8 9 10 11 11 10 5 3 3 2 3 4
4 6 4 5 5 3 3 5 6 3 5 7 3 5 5 9 3 10 12 15 16 17 16 16 16 16 17 16 16 15 14 13 12 11 11 11 10 9 8 8 8 8 8 8 6 4 2 1 1
5 3 5 4 3 3 3 2 1 4 4 4 3 4 4 5 19 15 15 14 15 15 16 17 17 17 17 17 16 16 15 14 14 14 11 12 12 10 11 11 11 10 10 10 9 7 4 3 1
4 3 5 2 2 4 3 3 10 12 12 8 8 5 4 10 17 16 16 18 17 17 17 17 16 16 17 17 15 14 13 13 13 12 11 12 12 13 13 12 11 12 13 11 10 10 9 7 5
6 4 2 2 2 3 5 6 3 4 7 5 7 5 5 9 18 19 19 18 18 17 17 16 16 14 14 14 14 11 10 7 7 7 7 8 10 11 14 15 13 13 13 13 13 12 10 9 7
5 4 4 2 4 1 9 3 4 5 3 1 3 6 6 10 21 21 18 17 17 15 14 15 17 16 14 14 15 13 11 11 8 7 7 6 7 9 10 12 14 14 15 14 12 12 11 10 9
2 5 2 5 5 3 6 4 2 2 4 3 5 3 13 21 21 20 18 20 21 20 16 13 11 11 11 13 15 14 12 11 10 9 7 7 8 9 10 10 10 12 14 16 15 13 12 11 8
4 4 8 4 4 5 5 4 7 5 6 3 7 14 19 20 21 19 14 15 17 16 13 9 9 11 12 13 14 14 13 12 9 7 6 7 9 11 12 13 13 13 12 14 14 15 13 12 9
2 3 4 4 5 11 5 4 2 8 6 5 12 13 15 14 14 13 15 17 15 11 10 10 10 12 15 17 16 14 11 9 7 6 7 8 10 12 14 15 17 17 17 15 14 14 14 12 11
6 8 5 6 5 5 4 4 4 4 3 12 11 17 12 11 12 15 17 17 13 10 10 9 12 16 18 14 13 12 7 6 6 7 9 11 14 15 17 17 17 16 15 15 13 14 13 12 10
5 4 8 12 13 9 8 7 5 4 5 13 13 12 10 12 13 18 18 14 13 10 7 9 12 18 16 12 13 12 8 5 7 7 10 12 14 14 14 15 15 15 13 13 13 12 13 13 11
4 10 6 7 6 4 6 3 2 4 7 9 9 9 9 9 11 14 15 13 10 10 6 5 11 15 13 11 12 11 9 6 6 7 10 12 13 13 13 14 13 15 15 13 14 13 13 12 12
6 6 5 3 2 4 3 5 4 8 7 7 8 7 10 13 6 7 8 13 14 9 5 4 10 12 13 14 12 9 4 5 6 8 10 12 13 14 16 15 15 14 15 16 15 13 13 12 11
4 5 3 1 2 2 4 1 6 7 8 7 7 7 6 9 15 14 8 13 12 7 4 3 8 11 13 12 10 10 7 9 6 6 11 12 13 15 15 16 16 15 16 14 15 14 13 13 13
3 1 2 3 2 4 2 3 7 7 6 8 8 5 8 8 10 13 8 12 10 6 3 2 4 7 11 12 8 9 8 9 7 6 11 13 11 12 14 16 15 17 17 15 14 14 14 15 16
3 4 5 4 3 7 6 6 7 5 6 9 9 8 8 7 9 11 15 15 12 8 5 3 4 8 12 13 10 10 11 12 9 8 9 11 11 13 14 16 17 19 20 19 18 17 15 15 15
6 6 7 2 4 6 9 9 7 1 7 11 8 7 10 8 9 9 12 14 11 9 8 6 4 6 11 13 12 14 15 12 10 9 10 12 12 13 15 16 17 18 20 20 19 17 15 14 10
7 9 4 3 5 6 9 8 6 6 6 3 11 9 6 6 4 4 10 7 12 12 11 9 5 5 10 11 11 13 14 13 14 11 12 11 12 12 14 15 17 18 19 18 19 13 11 10 8
3 6 6 6 7 6 6 3 2 2 2 1 2 1 3 5 5 6 10 15 21 18 14 9 5 6 8 10 12 12 12 13 11 12 13 13 12 12 13 14 15 17 16 17 19 13 9 9 12
2 1 12 16 4 3 0 2 2 1 2 3 4 6 6 6 4 7 14 18 15 20 15 11 6 6 9 9 11 11 11 12 14 16 16 14 11 12 13 12 15 16 16 18 17 14 12 10 15
3 6 11 5 6 4 6 4 4 1 5 4 5 8 8 7 6 7 16 18 19 19 15 11 7 7 8 8 10 12 14 13 14 15 14 11 12 13 12 13 15 16 17 17 16 15 14 12 14
12 12 8 5 3 3 3 3 4 2 3 5 4 6 8 7 7 12 17 18 22 17 12 8 9 8 8 10 11 14 17 16 16 15 14 13 14 14 13 13 15 15 15 17 18 16 15 13 12
6 4 3 3 4 3 3 3 5 4 4 4 8 7 7 7 6 7 14 18 12 14 12 9 8 10 10 11 13 15 16 15 16 14 14 15 15 15 15 13 15 15 16 17 17 13 11 9 13
3 5 4 4 3 2 4 1 3 5 2 4 5 5 3 6 7 7 13 17 18 8 12 10 10 11 11 12 12 15 13 14 15 14 13 15 15 14 12 12 13 14 16 14 13 12 10 11 13
1 5 3 6 3 3 2 2 5 6 4 3 6 5 6 7 6 7 13 14 11 16 15 13 12 11 12 11 13 14 12 13 12 10 11 13 12 11 8 11 12 13 15 13 13 13 11 9 11
6 4 1 3 3 1 3 3 3 7 7 6 6 7 8 7 7 6 9 15 11 19 18 16 13 13 12 12 14 13 11 8 8 9 8 9 8 6 9 8 10 11 13 12 13 10 9 9 14
5 3 6 5 3 4 3 3 4 7 6 9 11 10 9 9 7 6 16 14 14 14 13 16 15 14 14 14 15 14 10 7 9 10 9 10 11 11 10 10 8 11 14 13 14 8 9 8 11
2 2 3 4 2 2 3 2 8 7 9 11 13 14 16 8 8 9 15 14 16 17 16 16 15 15 16 16 17 15 13 10 12 12 13 11 12 12 10 4 6 10 11 11 11 10 8 9 9
Wind_Direction
152 120 35 68 59 74 65 330 95 94 53 357 49 31 96 41 19 105 82 89 94 79 82 80 78 69 70 68 68 69 66 63 62 57 53 52 47 43 38 40 49 58 53 75 86 100 117 132 134
136 353 43 73 76 65 12 328 75 72 110 85 80 92 47 70 64 78 69 84 90 82 78 79 80 76 69 71 69 68 66 64 60 52 47 43 37 33 31 29 28 34 49 54 63 85 122 135 138
93 29 72 82 87 105 89 66 94 59 26 57 90 51 43 32 75 92 111 95 96 83 76 73 72 70 70 67 67 63 56 46 40 36 38 36 34 32 25 25 25 21 24 31 21 42 113 140 155
360 24 38 75 91 37 76 36 1 308 29 39 107 67 82 36 99 128 110 104 93 82 76 65 65 62 60 58 57 54 48 44 38 33 29 24 8 16 11 10 10 9 11 14 15 1 355 57 139
54 60 60 65 96 120 156 287 171 80 94 359 344 93 69 59 119 124 113 105 95 90 84 74 69 69 66 63 59 53 50 47 42 36 32 21 27 17 2 356 355 354 351 348 349 351 351 344 305
46 91 56 66 119 135 92 98 105 96 110 105 96 96 77 123 122 115 111 101 95 89 82 80 76 69 61 51 45 44 41 37 33 29 38 37 24 18 8 359 356 353 350 341 337 332 329 330 335
114 78 103 84 21 130 133 155 65 98 118 79 150 112 131 122 129 127 113 105 96 88 82 73 64 60 55 45 36 36 25 18 23 40 30 31 23 9 0 360 3 359 351 343 334 332 325 316 312
102 89 116 181 187 77 136 90 69 69 77 41 353 172 162 158 136 123 114 101 92 80 75 63 58 60 56 37 34 31 27 32 23 8 24 38 29 22 15 1 356 1 349 337 327 322 325 319 306
123 68 183 207 145 152 141 122 52 118 91 35 357 21 121 137 132 125 115 103 91 80 84 76 60 46 33 23 20 9 2 2 9 18 24 18 12 9 13 12 359 347 344 343 336 324 309 309 292
73 109 210 142 146 138 113 97 138 151 148 95 96 97 126 136 138 128 122 114 100 90 85 76 64 43 23 11 360 351 347 348 2 10 16 16 15 11 2 354 344 336 331 324 323 325 319 303 306
124 127 60 33 98 122 118 106 173 134 182 145 146 132 137 135 130 133 137 122 114 108 94 70 49 25 5 350 339 333 340 359 18 31 39 29 11 357 343 335 328 322 317 311 302 297 309 313 290
78 40 62 115 81 82 94 82 68 30 329 119 146 146 143 133 138 144 142 137 129 115 94 67 36 11 359 359 1 353 358 17 43 44 26 8 358 352 345 343 342 335 327 317 309 299 287 295 298
87 121 58 72 77 75 75 68 85 74 61 105 128 137 134 138 143 159 155 147 139 124 97 49 21 16 17 20 22 15 7 54 67 36 13 6 3 357 357 354 351 349 340 335 325 311 297 287 284
94 92 103 55 85 88 107 137 71 70 107 102 120 132 134 120 141 159 163 147 143 129 109 56 26 28 26 15 15 29 50 58 36 16 10 5 3 1 352 350 352 347 338 331 325 316 310 296 288
153 82 87 66 91 124 149 47 71 138 110 114 111 95 77 49 73 220 174 152 152 158 123 39 32 31 19 11 11 7 46 8 352 1 0 0 359 356 356 341 344 346 346 331 322 312 303 298 291
76 71 135 134 144 151 15 35 126 155 141 120 102 87 121 179 206 245 183 156 164 175 117 56 27 21 12 4 6 18 11 356 332 346 356 356 354 352 347 347 352 351 348 337 329 312 302 299 298
6 169 81 49 4 109 50 118 151 173 136 106 98 164 203 215 252 264 197 181 180 184 153 44 357 10 5 5 5 8 7 5 1 338 354 355 351 346 346 349 349 345 346 350 331 326 307 295 290
157 136 74 116 8 54 79 85 156 168 143 139 181 196 200 263 245 259 201 196 200 191 219 262 309 355 1 357 350 354 356 360 357 344 336 336 339 346 346 351 350 345 340 340 335 322 317 302 290
106 83 99 80 126 82 86 70 36 250 221 167 208 203 222 221 257 258 202 201 212 215 233 258 295 350 358 357 354 346 344 342 341 328 336 337 339 339 341 341 341 341 337 336 333 323 312 312 301
102 113 92 68 67 88 99 74 58 48 15 136 199 229 252 259 247 187 188 232 254 247 250 257 279 351 354 347 341 338 337 336 330 330 333 337 335 335 332 330 334 338 338 342 341 323 306 300 313
130 142 185 150 104 41 110 106 133 189 118 45 278 278 243 265 231 177 179 208 237 249 257 269 294 336 340 333 334 337 341 342 345 341 339 342 335 334 327 327 329 340 345 345 347 343 318 295 299
304 180 139 140 124 152 207 174 201 227 281 221 210 246 234 254 243 204 215 241 247 256 262 270 266 302 326 324 322 319 318 320 336 336 332 336 342 338 332 331 338 344 346 347 348 349 336 295 284
198 104 130 101 82 108 359 77 264 328 321 322 224 219 225 231 234 231 230 245 257 257 260 261 259 288 320 313 311 310 309 313 320 331 332 335 338 337 334 335 345 344 342 345 345 341 325 306 293
107 88 57 59 92 51 296 115 304 295 288 310 302 246 224 230 248 235 246 256 265 264 254 255 250 290 315 306 307 311 310 310 309 318 322 331 339 341 339 343 348 344 342 344 340 335 331 322 299
87 63 34 343 11 224 281 76 231 266 243 240 279 279 246 229 228 234 243 245 246 245 233 232 256 288 302 297 304 314 318 311 309 305 314 323 333 332 340 347 347 345 340 339 337 338 342 359 355
219 146 156 250 191 235 342 24 272 252 255 268 281 292 286 229 232 233 251 253 253 259 253 242 257 276 299 296 304 313 314 317 316 309 306 319 324 321 331 342 343 338 342 346 347 346 338 331 349
337 52 158 106 31 81 281 278 341 3 343 326 341 339 302 276 272 260 244 251 259 245 241 244 254 271 291 295 299 311 313 322 329 330 322 324 329 329 332 339 344 343 350 354 353 346 358 357 3
91 145 71 25 131 137 329 327 259 339 327 324 299 297 299 290 277 295 312 280 258 238 250 237 248 260 282 290 289 297 304 315 318 329 336 329 335 331 335 345 341 347 345 343 351 353 4 27 350
349 29 58 109 99 144 158 273 328 297 331 342 342 336 321 308 318 287 278 265 247 269 250 240 245 257 277 285 281 287 286 292 295 306 305 312 315 311 318 316 321 332 341 349 353 350 353 3 5
66 95 107 113 190 78 121 244 344 348 32 26 13 8 7 342 321 306 308 298 268 261 251 252 253 257 274 282 278 276 270 269 279 292 300 294 297 307 318 340 314 322 323 340 354 12 8 18 19